User: anonymous   Login
Location: Unspecified
(0.0000°N, 0.0000°E)
Time: 10:01:04
(UTC+00:00)
Language:

STARLINK-4508 - Orbit

View from above orbital plane
View from above orbital plane
View from above satellite
View from above satellite

Ground track
Ground track

The orbit is defined by the following mean orbital elements,

1 53559U          26146.29486644 +.00000000 +00000-0 +21785-2 0 00007
2 53559  53.2177  60.1755 0000178 289.0897  71.0116 16.01392396    03
Epoch (UTC): 26 May 2026 07:04:36
Eccentricity: 0.0000178
inclination: 53.2177°
perigee height: 270 km
apogee height: 271 km
right ascension of ascending node: 60.1755°
argument of perigee: 289.0897°
revolutions per day: 16.01392396
mean anomaly at epoch: 71.0116°

The dashed part of the orbit path shows where the satellite is in the earth's shadow,  

DLR